Courtland, AL

3:26 PM CST on December 07, 2016 (GMT -0600)
Courtland

Weather History for K9A4 - October, 2011

Change the Weather History Date:

Monday, October 24, 2011

  Actual Average (KMSL) Record (KMSL)
Temperature  
Mean Temperature 57 °F 59 °F  
Max Temperature 73 °F 72 °F 88 °F (1939)
Min Temperature 41 °F 47 °F 25 °F (1937)
Degree Days  
Heating Degree Days 8 7  
Month to date heating degree days 101  
Since 1 July heating degree days 116  
Cooling Degree Days 0 1  
Month to date cooling degree days 54  
Year to date cooling degree days 1856  
Growing Degree Days 7 (Base 50)    
Moisture  
Dew Point 47 °F    
Average Humidity 74    
Maximum Humidity 100    
Minimum Humidity 33    
Precipitation  
Precipitation 0.00 in 0.12 in 3.24 in (1986)
Month to date precipitation 2.58  
Year to date precipitation 42.01  
Snow  
Snow 0.00 in - - ()
Month to date snowfall  
Since 1 July snowfall  
Since 1 September snowfall  
Snow Depth -    
Sea Level Pressure  
Sea Level Pressure 30.18 in    
Wind  
Wind Speed 2 mph (NW)    
Max Wind Speed 8 mph    
Max Gust Speed -    
Visibility 8 miles    
Events Fog    
T = Trace of Precipitation, MM = Missing Value Source: NWS Daily Summary

Daily Weather History Graph

Daily Weather History Graph

Search for Another Location

Airport or City:

Trip Planner

Search our weather history database for the weather conditions in past years. The results will help you decide how hot, cold, wet, or windy it might be!

Date:

Astronomy

Oct. 24, 2011 Rise Set
Actual Time 7:02 AM CDT 6:04 PM CDT
Civil Twilight 6:36 AM CDT 6:29 PM CDT
Nautical Twilight 6:07 AM CDT 6:59 PM CDT
Astronomical Twilight 5:37 AM CDT 7:28 PM CDT
Moon 4:25 AM CDT (10/24) 4:25 PM CDT (10/24)
Length of Visible Light 11h 53m
Length of Day
11h 01m
Waning Crescent, 7% of the Moon is Illuminated
Oct 24
Waning Crescent
Oct 26
New
Nov 2
First Quarter
Nov 10
Full
Nov 18
Last Quarter

Hourly Weather History & Observations

Time (CDT) Temp. Dew Point Humidity Pressure Visibility Wind Dir Wind Speed Gust Speed Precip Events Conditions
12:15 AM 53.6 °F 51.8 °F 94% 30.13 in 10.0 mi South 4.6 mph - N/A   Overcast
12:35 AM 53.6 °F 51.8 °F 94% 30.13 in 10.0 mi Calm Calm - N/A   Overcast
12:55 AM 53.6 °F 51.8 °F 94% 30.13 in 10.0 mi Calm Calm - N/A   Overcast
1:15 AM 53.6 °F 51.8 °F 94% 30.13 in 10.0 mi Calm Calm - N/A   Overcast
1:35 AM 51.8 °F 51.8 °F 100% 30.13 in 10.0 mi Calm Calm - N/A   Overcast
1:55 AM 51.8 °F 50.0 °F 94% 30.14 in 10.0 mi NNW 6.9 mph - N/A   Overcast
2:15 AM 50.0 °F 50.0 °F 100% 30.14 in 10.0 mi Calm Calm - N/A   Overcast
2:35 AM 50.0 °F 50.0 °F 100% 30.14 in 10.0 mi Calm Calm - N/A   Scattered Clouds
2:55 AM 50.0 °F 50.0 °F 100% 30.13 in 10.0 mi Calm Calm - N/A   Mostly Cloudy
3:15 AM 50.0 °F 48.2 °F 94% 30.13 in 10.0 mi Calm Calm - N/A   Overcast
3:35 AM 48.2 °F 48.2 °F 100% 30.13 in 10.0 mi Calm Calm - N/A   Overcast
3:55 AM 48.2 °F 48.2 °F 100% 30.13 in 10.0 mi Calm Calm - N/A   Mostly Cloudy
4:15 AM 48.2 °F 46.4 °F 93% 30.13 in 10.0 mi Calm Calm - N/A   Scattered Clouds
4:35 AM 46.4 °F 46.4 °F 100% 30.13 in 3.0 mi Calm Calm - N/A   Clear
4:55 AM 44.6 °F 44.6 °F 100% 30.13 in 7.0 mi Calm Calm - N/A   Mostly Cloudy
5:15 AM 44.6 °F 44.6 °F 100% 30.13 in 0.5 mi Calm Calm - N/A Fog Fog
5:55 AM 42.8 °F 42.8 °F 100% 30.14 in 0.5 mi Calm Calm - N/A Fog Fog
6:15 AM 42.8 °F 42.8 °F 100% 30.15 in 0.5 mi Calm Calm - N/A Fog Fog
6:35 AM 42.8 °F 42.8 °F 100% 30.15 in 0.2 mi Calm Calm - N/A Fog Fog
6:55 AM 42.8 °F 42.8 °F 100% 30.15 in 0.2 mi Calm Calm - N/A Fog Fog
7:35 AM 42.8 °F 42.8 °F 100% 30.18 in 0.2 mi Calm Calm - N/A Fog Fog
7:55 AM 41.0 °F 41.0 °F 100% 30.18 in 0.2 mi Calm Calm - N/A Fog Fog
8:15 AM 42.8 °F 42.8 °F 100% 30.19 in 0.2 mi Calm Calm - N/A Fog Fog
8:35 AM 44.6 °F 44.6 °F 100% 30.20 in 0.5 mi Calm Calm - N/A Fog Fog
8:55 AM 44.6 °F 44.6 °F 100% 30.21 in 4.0 mi Calm Calm - N/A   Overcast
9:15 AM 48.2 °F 48.2 °F 100% 30.21 in 10.0 mi Calm Calm - N/A   Scattered Clouds
9:35 AM 51.8 °F 51.8 °F 100% 30.22 in 10.0 mi NNW 3.5 mph - N/A   Clear
9:55 AM 51.8 °F 51.8 °F 100% 30.22 in 7.0 mi North 3.5 mph - N/A   Clear
10:15 AM 53.6 °F 51.8 °F 94% 30.22 in 10.0 mi Calm Calm - N/A   Clear
10:35 AM 55.4 °F 51.8 °F 88% 30.23 in 10.0 mi Calm Calm - N/A   Clear
10:55 AM 59.0 °F 51.8 °F 77% 30.22 in 10.0 mi North 3.5 mph - N/A   Clear
11:15 AM 60.8 °F 50.0 °F 68% 30.23 in 10.0 mi NNW 3.5 mph - N/A   Clear
11:35 AM 62.6 °F 50.0 °F 63% 30.23 in 10.0 mi NNW 3.5 mph - N/A   Clear
12:15 PM 64.4 °F 50.0 °F 59% 30.22 in 10.0 mi Calm Calm - N/A   Clear
12:35 PM 66.2 °F 50.0 °F 56% 30.22 in 10.0 mi NNW 3.5 mph - N/A   Clear
12:55 PM 68.0 °F 46.4 °F 46% 30.21 in 10.0 mi NNW 3.5 mph - N/A   Clear
1:15 PM 68.0 °F 46.4 °F 46% 30.21 in 10.0 mi WNW 5.8 mph - N/A   Clear
1:35 PM 69.8 °F 46.4 °F 43% 30.20 in 10.0 mi NNW 3.5 mph - N/A   Clear
1:55 PM 69.8 °F 44.6 °F 40% 30.19 in 10.0 mi Calm Calm - N/A   Clear
2:15 PM 71.6 °F 42.8 °F 35% 30.18 in 10.0 mi NNW 8.1 mph - N/A   Clear
2:55 PM 71.6 °F 44.6 °F 38% 30.17 in 10.0 mi NW 4.6 mph - N/A   Clear
3:15 PM 73.4 °F 42.8 °F 33% 30.17 in 10.0 mi NNW 6.9 mph - N/A   Clear
3:35 PM 73.4 °F 42.8 °F 33% 30.16 in 10.0 mi WNW 5.8 mph - N/A   Clear
3:55 PM 73.4 °F 42.8 °F 33% 30.16 in 10.0 mi NW 6.9 mph - N/A   Clear
4:15 PM 73.4 °F 42.8 °F 33% 30.16 in 10.0 mi North 5.8 mph - N/A   Clear
4:35 PM 73.4 °F 44.6 °F 36% 30.16 in 10.0 mi WNW 5.8 mph - N/A   Clear
4:55 PM 73.4 °F 44.6 °F 36% 30.17 in 10.0 mi NW 4.6 mph - N/A   Clear
5:15 PM 73.4 °F 44.6 °F 36% 30.17 in 10.0 mi West 6.9 mph - N/A   Clear
5:35 PM 71.6 °F 46.4 °F 41% 30.17 in 10.0 mi West 5.8 mph - N/A   Clear
5:55 PM 71.6 °F 46.4 °F 41% 30.17 in 10.0 mi West 8.1 mph - N/A   Clear
6:15 PM 69.8 °F 46.4 °F 43% 30.18 in 10.0 mi West 4.6 mph - N/A   Clear
6:35 PM 64.4 °F 46.4 °F 52% 30.18 in 10.0 mi West 4.6 mph - N/A   Clear
6:55 PM 64.4 °F 46.4 °F 52% 30.18 in 10.0 mi West 4.6 mph - N/A   Clear
7:15 PM 62.6 °F 46.4 °F 55% 30.19 in 10.0 mi West 3.5 mph - N/A   Clear
7:35 PM 59.0 °F 46.4 °F 63% 30.19 in 10.0 mi WNW 4.6 mph - N/A   Clear
7:55 PM 57.2 °F 46.4 °F 67% 30.20 in 10.0 mi Calm Calm - N/A   Clear
8:15 PM 57.2 °F 46.4 °F 67% 30.21 in 10.0 mi NW 3.5 mph - N/A   Clear
8:35 PM 59.0 °F 46.4 °F 63% 30.21 in 10.0 mi NW 3.5 mph - N/A   Clear
9:15 PM 53.6 °F 46.4 °F 77% 30.22 in 10.0 mi Calm Calm - N/A   Clear
9:35 PM 51.8 °F 46.4 °F 82% 30.22 in 10.0 mi Calm Calm - N/A   Clear
10:15 PM 50.0 °F 44.6 °F 82% 30.23 in 10.0 mi Calm Calm - N/A   Clear
10:55 PM 50.0 °F 46.4 °F 87% 30.23 in 10.0 mi Calm Calm - N/A   Clear
11:15 PM 48.2 °F 44.6 °F 87% 30.23 in 10.0 mi Calm Calm - N/A   Clear
11:35 PM 50.0 °F 46.4 °F 87% 30.23 in 10.0 mi Calm Calm - N/A   Clear
11:55 PM 48.2 °F 46.4 °F 93% 30.24 in 10.0 mi Calm Calm - N/A   Clear